Time,TemperatureF,DewpointF,PressureIn,WindDirection,WindDirectionDegrees,WindSpeedMPH,WindSpeedGustMPH,Humidity,HourlyPrecipIn,Conditions,Clouds,dailyrainin,SoftwareType,DateUTC
2013-08-06 00:04:00,73.0,71.0,29.86,SSW,192,0.0,-999.0,92,-99.99,,,0.00,weatherlink.com 1.10,2013-08-06 05:04:00,
2013-08-06 00:20:00,72.9,71.0,29.88,SSW,192,0.0,-999.0,93,-99.99,,,0.00,weatherlink.com 1.10,2013-08-06 05:20:00,
2013-08-06 00:34:00,72.9,71.0,29.88,SSW,192,0.0,-999.0,93,-99.99,,,0.00,weatherlink.com 1.10,2013-08-06 05:34:00,
2013-08-06 00:49:00,73.0,71.0,29.87,SSW,192,0.0,-999.0,92,-99.99,,,0.00,weatherlink.com 1.10,2013-08-06 05:49:00,
2013-08-06 01:05:00,72.6,70.0,29.87,SSW,192,0.0,-999.0,92,-99.99,,,0.00,weatherlink.com 1.10,2013-08-06 06:05:00,
2013-08-06 01:20:00,72.2,70.0,29.87,SSW,192,0.0,-999.0,93,-99.99,,,0.00,weatherlink.com 1.10,2013-08-06 06:20:00,
2013-08-06 01:35:00,72.0,70.0,29.87,SSW,192,0.0,-999.0,93,-99.99,,,0.00,weatherlink.com 1.10,2013-08-06 06:35:00,
2013-08-06 01:50:00,71.9,70.0,29.87,SSW,192,0.0,-999.0,94,-99.99,,,0.00,weatherlink.com 1.10,2013-08-06 06:50:00,
2013-08-06 02:05:00,71.9,70.0,29.86,SSW,192,0.0,-999.0,94,-99.99,,,0.00,weatherlink.com 1.10,2013-08-06 07:05:00,
2013-08-06 02:20:00,71.6,70.0,29.86,SSW,192,0.0,-999.0,95,-99.99,,,0.00,weatherlink.com 1.10,2013-08-06 07:20:00,
2013-08-06 02:35:00,71.6,70.0,29.85,SSW,192,0.0,-999.0,95,-99.99,,,0.00,weatherlink.com 1.10,2013-08-06 07:35:00,
2013-08-06 02:50:00,71.7,70.0,29.85,SSW,192,0.0,-999.0,95,-99.99,,,0.00,weatherlink.com 1.10,2013-08-06 07:50:00,
2013-08-06 03:05:00,71.5,70.0,29.85,SSW,192,0.0,-999.0,95,-99.99,,,0.00,weatherlink.com 1.10,2013-08-06 08:05:00,
2013-08-06 03:21:00,70.8,69.0,29.84,SSW,192,0.0,-999.0,95,-99.99,,,0.00,weatherlink.com 1.10,2013-08-06 08:21:00,
2013-08-06 03:35:00,70.1,69.0,29.84,SSW,192,0.0,-999.0,95,-99.99,,,0.00,weatherlink.com 1.10,2013-08-06 08:35:00,
2013-08-06 03:50:00,69.6,68.0,29.83,SSW,192,0.0,-999.0,95,-99.99,,,0.00,weatherlink.com 1.10,2013-08-06 08:50:00,
2013-08-06 04:05:00,69.4,68.0,29.84,SSW,192,0.0,-999.0,95,-99.99,,,0.00,weatherlink.com 1.10,2013-08-06 09:05:00,
2013-08-06 04:21:00,68.7,67.0,29.83,SSW,192,0.0,-999.0,95,-99.99,,,0.00,weatherlink.com 1.10,2013-08-06 09:21:00,
2013-08-06 04:36:00,68.6,68.0,29.83,SSW,192,0.0,-999.0,96,-99.99,,,0.00,weatherlink.com 1.10,2013-08-06 09:36:00,
2013-08-06 04:51:00,69.1,68.0,29.83,SSW,192,0.0,-999.0,97,-99.99,,,0.00,weatherlink.com 1.10,2013-08-06 09:51:00,
2013-08-06 05:07:00,68.1,67.0,29.83,SSW,192,0.0,-999.0,96,-99.99,,,0.00,weatherlink.com 1.10,2013-08-06 10:07:00,
2013-08-06 05:22:00,67.5,66.0,29.83,SSW,192,0.0,-999.0,96,-99.99,,,0.00,weatherlink.com 1.10,2013-08-06 10:22:00,
2013-08-06 05:36:00,67.4,67.0,29.83,SSW,192,0.0,-999.0,97,-99.99,,,0.00,weatherlink.com 1.10,2013-08-06 10:36:00,
2013-08-06 05:52:00,67.1,66.0,29.84,SSW,192,0.0,-999.0,97,-99.99,,,0.00,weatherlink.com 1.10,2013-08-06 10:52:00,
2013-08-06 06:07:00,67.1,66.0,29.83,SSW,192,0.0,-999.0,97,-99.99,,,0.00,weatherlink.com 1.10,2013-08-06 11:07:00,
2013-08-06 06:22:00,67.0,66.0,29.84,SSW,192,0.0,-999.0,97,-99.99,,,0.00,weatherlink.com 1.10,2013-08-06 11:22:00,
2013-08-06 06:37:00,67.0,66.0,29.84,SSW,192,0.0,-999.0,97,-99.99,,,0.00,weatherlink.com 1.10,2013-08-06 11:37:00,
2013-08-06 06:52:00,67.1,66.0,29.84,SSW,192,0.0,-999.0,97,-99.99,,,0.00,weatherlink.com 1.10,2013-08-06 11:52:00,
2013-08-06 07:07:00,67.9,67.0,29.86,SSW,192,0.0,-999.0,98,-99.99,,,0.00,weatherlink.com 1.10,2013-08-06 12:07:00,
2013-08-06 07:22:00,69.3,69.0,29.86,SSW,192,0.0,-999.0,98,-99.99,,,0.00,weatherlink.com 1.10,2013-08-06 12:22:00,
2013-08-06 07:37:00,70.2,70.0,29.87,SSW,192,0.0,-999.0,98,-99.99,,,0.00,weatherlink.com 1.10,2013-08-06 12:37:00,
2013-08-06 07:52:00,71.2,71.0,29.88,SSW,192,0.0,-999.0,98,-99.99,,,0.00,weatherlink.com 1.10,2013-08-06 12:52:00,
2013-08-06 08:07:00,72.0,71.0,29.88,SSW,192,0.0,-999.0,98,-99.99,,,0.00,weatherlink.com 1.10,2013-08-06 13:07:00,
2013-08-06 08:23:00,72.9,72.0,29.90,SSW,192,4.0,-999.0,97,-99.99,,,0.00,weatherlink.com 1.10,2013-08-06 13:23:00,
2013-08-06 08:37:00,72.8,72.0,29.90,SSE,166,0.0,-999.0,96,-99.99,,,0.00,weatherlink.com 1.10,2013-08-06 13:37:00,
2013-08-06 08:52:00,73.4,72.0,29.90,SSE,148,0.0,-999.0,96,-99.99,,,0.00,weatherlink.com 1.10,2013-08-06 13:52:00,
2013-08-06 09:07:00,74.4,73.0,29.89,SE,138,0.0,-999.0,95,-99.99,,,0.00,weatherlink.com 1.10,2013-08-06 14:07:00,
2013-08-06 09:23:00,75.5,73.0,29.89,SE,138,0.0,-999.0,92,-99.99,,,0.00,weatherlink.com 1.10,2013-08-06 14:23:00,
2013-08-06 09:38:00,76.6,73.0,29.89,SE,138,0.0,-999.0,89,-99.99,,,0.00,weatherlink.com 1.10,2013-08-06 14:38:00,
2013-08-06 09:53:00,77.5,73.0,29.89,ESE,121,0.0,-999.0,87,-99.99,,,0.00,weatherlink.com 1.10,2013-08-06 14:53:00,
2013-08-06 10:09:00,78.2,74.0,29.88,ESE,123,0.0,-999.0,86,-99.99,,,0.00,weatherlink.com 1.10,2013-08-06 15:09:00,
2013-08-06 10:24:00,78.2,73.0,29.88,SSW,205,0.0,-999.0,84,-99.99,,,0.00,weatherlink.com 1.10,2013-08-06 15:24:00,
2013-08-06 10:38:00,78.4,73.0,29.89,SSW,202,0.0,-999.0,83,-99.99,,,0.00,weatherlink.com 1.10,2013-08-06 15:38:00,
2013-08-06 10:53:00,78.8,74.0,29.89,SW,222,0.0,-999.0,84,-99.99,,,0.00,weatherlink.com 1.10,2013-08-06 15:53:00,
2013-08-06 11:09:00,79.5,73.0,29.88,SW,221,0.0,-999.0,81,-99.99,,,0.00,weatherlink.com 1.10,2013-08-06 16:09:00,
2013-08-06 11:24:00,80.9,73.0,29.88,South,187,1.0,-999.0,77,-99.99,,,0.00,weatherlink.com 1.10,2013-08-06 16:24:00,
2013-08-06 11:39:00,81.8,74.0,29.87,South,188,0.0,-999.0,77,-99.99,,,0.00,weatherlink.com 1.10,2013-08-06 16:39:00,
2013-08-06 11:55:00,81.4,75.0,29.85,SE,127,2.0,-999.0,81,-99.99,,,0.00,weatherlink.com 1.10,2013-08-06 16:55:00,
2013-08-06 12:10:00,81.9,74.0,29.86,SSE,165,1.0,-999.0,78,-99.99,,,0.00,weatherlink.com 1.10,2013-08-06 17:10:00,
2013-08-06 12:25:00,81.7,75.0,29.83,ESE,115,0.0,-999.0,81,-99.99,,,0.00,weatherlink.com 1.10,2013-08-06 17:25:00,
2013-08-06 12:39:00,81.7,75.0,29.82,South,191,0.0,-999.0,79,-99.99,,,0.00,weatherlink.com 1.10,2013-08-06 17:39:00,
2013-08-06 12:55:00,82.7,75.0,29.82,SSE,168,0.0,-999.0,78,-99.99,,,0.00,weatherlink.com 1.10,2013-08-06 17:55:00,
2013-08-06 13:10:00,84.6,75.0,29.81,South,178,7.0,-999.0,73,-99.99,,,0.00,weatherlink.com 1.10,2013-08-06 18:10:00,
2013-08-06 13:25:00,84.7,74.0,29.81,South,176,1.0,-999.0,71,-99.99,,,0.00,weatherlink.com 1.10,2013-08-06 18:25:00,
2013-08-06 13:40:00,85.0,74.0,29.81,SE,144,0.0,-999.0,70,-99.99,,,0.00,weatherlink.com 1.10,2013-08-06 18:40:00,
2013-08-06 13:55:00,85.5,75.0,29.81,South,189,0.0,-999.0,70,-99.99,,,0.00,weatherlink.com 1.10,2013-08-06 18:55:00,
2013-08-06 14:10:00,86.0,74.0,29.81,SSE,159,0.0,-999.0,68,-99.99,,,0.00,weatherlink.com 1.10,2013-08-06 19:10:00,
2013-08-06 14:26:00,86.6,74.0,29.80,South,180,1.0,-999.0,67,-99.99,,,0.00,weatherlink.com 1.10,2013-08-06 19:26:00,
2013-08-06 14:40:00,86.9,74.0,29.80,SSE,161,5.0,-999.0,66,-99.99,,,0.00,weatherlink.com 1.10,2013-08-06 19:40:00,
2013-08-06 14:55:00,87.3,73.0,29.80,SE,141,2.0,-999.0,62,-99.99,,,0.00,weatherlink.com 1.10,2013-08-06 19:55:00,
2013-08-06 15:10:00,87.1,72.0,29.80,SSE,152,0.0,-999.0,62,-99.99,,,0.00,weatherlink.com 1.10,2013-08-06 20:10:00,
2013-08-06 15:26:00,88.5,76.0,29.80,SE,132,0.0,-999.0,66,-99.99,,,0.00,weatherlink.com 1.10,2013-08-06 20:26:00,
2013-08-06 15:41:00,89.1,75.0,29.81,SW,217,0.0,-999.0,63,-99.99,,,0.00,weatherlink.com 1.10,2013-08-06 20:41:00,
2013-08-06 15:56:00,88.6,73.0,29.81,West,270,4.0,-999.0,61,-99.99,,,0.00,weatherlink.com 1.10,2013-08-06 20:56:00,
2013-08-06 16:11:00,88.7,73.0,29.81,WSW,241,0.0,-999.0,59,-99.99,,,0.00,weatherlink.com 1.10,2013-08-06 21:11:00,
2013-08-06 16:27:00,88.7,74.0,29.81,WSW,254,0.0,-999.0,62,-99.99,,,0.00,weatherlink.com 1.10,2013-08-06 21:27:00,
2013-08-06 16:41:00,89.4,74.0,29.81,WSW,238,0.0,-999.0,60,-99.99,,,0.00,weatherlink.com 1.10,2013-08-06 21:41:00,
2013-08-06 16:56:00,89.9,73.0,29.81,SW,231,0.0,-999.0,58,-99.99,,,0.00,weatherlink.com 1.10,2013-08-06 21:56:00,
2013-08-06 17:27:00,89.8,75.0,29.81,WSW,249,0.0,-999.0,62,-99.99,,,0.00,weatherlink.com 1.10,2013-08-06 22:27:00,
2013-08-06 17:41:00,90.1,75.0,29.81,NW,321,0.0,-999.0,61,-99.99,,,0.00,weatherlink.com 1.10,2013-08-06 22:41:00,
2013-08-06 17:57:00,89.3,74.0,29.81,SW,222,0.0,-999.0,60,-99.99,,,0.00,weatherlink.com 1.10,2013-08-06 22:57:00,
2013-08-06 18:12:00,88.0,74.0,29.80,SW,222,0.0,-999.0,63,-99.99,,,0.00,weatherlink.com 1.10,2013-08-06 23:12:00,
2013-08-06 18:27:00,86.6,74.0,29.79,SW,222,0.0,-999.0,67,-99.99,,,0.00,weatherlink.com 1.10,2013-08-06 23:27:00,
2013-08-06 18:42:00,85.0,76.0,29.77,SW,222,0.0,-999.0,75,-99.99,,,0.00,weatherlink.com 1.10,2013-08-06 23:42:00,
2013-08-06 18:57:00,83.4,76.0,29.78,SW,222,0.0,-999.0,77,-99.99,,,0.00,weatherlink.com 1.10,2013-08-06 23:57:00,
2013-08-06 19:12:00,81.8,76.0,29.80,SW,222,0.0,-999.0,83,-99.99,,,0.01,weatherlink.com 1.10,2013-08-07 00:12:00,
2013-08-06 19:27:00,79.2,75.0,29.81,West,275,3.0,-999.0,86,-99.99,,,0.01,weatherlink.com 1.10,2013-08-07 00:27:00,
2013-08-06 19:42:00,77.0,74.0,29.80,WNW,286,1.0,-999.0,90,-99.99,,,0.02,weatherlink.com 1.10,2013-08-07 00:42:00,
2013-08-06 19:57:00,75.6,73.0,29.81,NW,319,0.0,-999.0,92,-99.99,,,0.02,weatherlink.com 1.10,2013-08-07 00:57:00,
2013-08-06 20:12:00,74.9,73.0,29.82,West,278,4.0,-999.0,93,-99.99,,,0.02,weatherlink.com 1.10,2013-08-07 01:12:00,
2013-08-06 20:27:00,74.4,70.0,29.83,West,279,0.0,-999.0,86,-99.99,,,0.03,weatherlink.com 1.10,2013-08-07 01:27:00,
2013-08-06 20:42:00,72.7,68.0,29.83,SW,214,0.0,-999.0,86,-99.99,,,0.03,weatherlink.com 1.10,2013-08-07 01:42:00,
2013-08-06 20:57:00,71.3,67.0,29.83,WNW,301,0.0,-999.0,87,-99.99,,,0.03,weatherlink.com 1.10,2013-08-07 01:57:00,
2013-08-06 21:13:00,70.8,67.0,29.83,WSW,257,0.0,-999.0,87,-99.99,,,0.04,weatherlink.com 1.10,2013-08-07 02:13:00,
2013-08-06 21:28:00,70.1,67.0,29.82,WSW,255,0.0,-999.0,89,-99.99,,,0.04,weatherlink.com 1.10,2013-08-07 02:28:00,
2013-08-06 21:43:00,69.8,67.0,29.84,WSW,239,0.0,-999.0,91,-99.99,,,0.05,weatherlink.com 1.10,2013-08-07 02:43:00,
2013-08-06 21:59:00,70.3,68.0,29.87,SW,221,5.0,-999.0,91,-99.99,,,0.07,weatherlink.com 1.10,2013-08-07 02:59:00,
2013-08-06 22:14:00,69.9,68.0,29.86,South,178,8.0,-999.0,92,-99.99,,,0.17,weatherlink.com 1.10,2013-08-07 03:14:00,
2013-08-06 22:29:00,70.0,68.0,29.86,WSW,245,0.0,-999.0,93,-99.99,,,0.40,weatherlink.com 1.10,2013-08-07 03:29:00,
2013-08-06 22:44:00,69.8,68.0,29.84,SW,217,0.0,-999.0,95,-99.99,,,0.40,weatherlink.com 1.10,2013-08-07 03:44:00,
2013-08-06 22:59:00,69.6,68.0,29.84,SW,223,0.0,-999.0,95,-99.99,,,0.40,weatherlink.com 1.10,2013-08-07 03:59:00,
2013-08-06 23:14:00,69.5,68.0,29.82,SW,223,0.0,-999.0,96,-99.99,,,0.40,weatherlink.com 1.10,2013-08-07 04:14:00,
2013-08-06 23:29:00,70.0,69.0,29.82,SW,223,0.0,-999.0,96,-99.99,,,0.40,weatherlink.com 1.10,2013-08-07 04:29:00,
2013-08-06 23:44:00,70.0,69.0,29.83,SW,223,0.0,-999.0,96,-99.99,,,0.40,weatherlink.com 1.10,2013-08-07 04:44:00,
2013-08-06 23:59:00,70.2,69.0,29.82,SW,223,0.0,-999.0,97,-99.99,,,0.40,weatherlink.com 1.10,2013-08-07 04:59:00,